date,alpha,beta
6/13/2003,1.56752234,0.208775394
6/16/2003,1.559255665,0.208741926
6/17/2003,1.522775193,0.2210248
6/18/2003,1.494,0.228
6/19/2003,1.510707527,0.231182974
6/20/2003,1.510707527,0.231182974
6/23/2003,1.519290227,0.225567953
6/24/2003,1.577537797,0.198704104
6/25/2003,1.633482378,0.180957391
6/26/2003,1.687294508,0.172596764
6/27/2003,1.713097983,0.156344386
6/30/2003,1.717593051,0.142375904
7/1/2003,1.74863767,0.143564847
7/2/2003,1.730769231,0.162207358
7/3/2003,1.762495464,0.139487315
7/4/2003,1.783770604,0.138300985
7/7/2003,1.814850938,0.139471374
7/8/2003,1.83660067,0.115185799
7/9/2003,1.868178872,0.107906675
7/10/2003,1.789049445,0.131229726
7/11/2003,1.787764721,0.13076495
7/14/2003,1.767219449,0.135887941
7/15/2003,1.798389953,0.128481726
7/16/2003,1.795499984,0.126781124
7/17/2003,1.771382637,0.127974277
7/18/2003,1.779099678,0.12829582
7/21/2003,1.786524113,0.129332343
7/22/2003,1.793808411,0.130451713
7/23/2003,1.793420495,0.131231456
7/24/2003,1.809309162,0.128368447
7/25/2003,1.813432836,0.125610884
7/28/2003,1.797468354,0.132911392
7/29/2003,1.78828665,0.132775555
7/30/2003,1.829457364,0.118896607
7/31/2003,1.873015873,0.099308099
8/1/2003,1.864,0.099234043
8/4/2003,1.864,0.099234043
8/5/2003,1.836065574,0.103664417
8/6/2003,1.851584022,0.095041322
8/7/2003,1.872881356,0.087827427
8/8/2003,1.889830508,0.071158426
8/11/2003,1.889830508,0.067026194
8/12/2003,1.931846866,0.057635675
8/13/2003,1.948786587,0.053221091
8/14/2003,1.948717949,0.054131054
8/15/2003,1.948759458,0.053668837
8/18/2003,1.948618687,0.04557452
8/19/2003,1.983497302,0.028033429
8/20/2003,2.019986581,0.022317172
8/21/2003,2.029807659,0.013529964
8/22/2003,2.08585359,-0.00508762
8/25/2003,2.076316167,0.011189212
8/26/2003,2.046858999,0.013453865
8/27/2003,2.063926293,0.005315379
8/28/2003,2.05423437,0.010007533
8/29/2003,2.053529924,0.00232423
9/1/2003,2.109199325,-0.024318402
9/2/2003,2.13292752,-0.028029445
9/3/2003,2.152515946,-0.037207654
9/4/2003,2.156489511,-0.042603721
9/5/2003,2.175119617,-0.051036683
9/8/2003,2.149726855,-0.042840713
9/9/2003,2.078684971,-0.009393064
9/10/2003,2.05,4.44E-16
9/11/2003,2.029182879,-0.001945525
9/12/2003,2.019365945,0.006598766
9/15/2003,2.000573806,0.007602926
9/16/2003,1.991751542,0.015707933
9/17/2003,2.000145688,0.007867133
9/18/2003,2.046836128,-0.010275825
9/19/2003,2.046078011,-0.021431633
9/22/2003,2.062508889,-0.037405774
9/23/2003,1.989021781,-0.014555785
9/24/2003,2.016905756,-0.015923679
9/25/2003,1.998123958,-0.010839355
9/26/2003,1.999374653,-0.003613118
9/29/2003,2,0
9/30/2003,1.981072778,0.004908365
10/1/2003,2.00057639,0.003566411
10/2/2003,1.98117024,0.012393807
10/3/2003,2.039338593,-0.006592457
10/6/2003,2.077363897,-0.016475645
10/7/2003,2.075374328,-0.031181858
10/8/2003,2.094713577,-0.03616073
10/9/2003,2.079034669,-0.02085232
10/10/2003,2.112836131,-0.024587728
10/13/2003,2.081195793,-0.017899982
10/14/2003,2.030759162,-0.002617801
10/15/2003,2.0406165,-0.007071623
10/16/2003,2.060105184,-0.015777611
10/17/2003,2.068152221,-0.026985964
10/20/2003,2.067356388,-0.030386341
10/21/2003,2.065167243,-0.037197232
10/22/2003,2.101289398,-0.054441261
10/23/2003,2.152970012,-0.065743945
10/24/2003,2.227875129,-0.087763216
10/27/2003,2.229390681,-0.081541219
10/28/2003,2.230327528,-0.08227872
10/29/2003,2.189377054,-0.078803219
10/30/2003,2.190778406,-0.075929041
10/31/2003,2.191919192,-0.080575874
11/3/2003,2.187564926,-0.079796853
11/4/2003,2.246585356,-0.099572929
11/5/2003,2.273949448,-0.11148237
11/6/2003,2.272360248,-0.118012422
11/7/2003,2.280929806,-0.117219758
11/10/2003,2.294117647,-0.132922937
11/11/2003,2.294117647,-0.132922937
11/12/2003,2.326127239,-0.152872143
11/13/2003,2.292462075,-0.140449218
11/14/2003,2.311752675,-0.142227816
11/17/2003,2.28646136,-0.134805346
11/18/2003,2.286700414,-0.121721123
11/19/2003,2.286547016,-0.113897837
11/20/2003,2.286547016,-0.113897837
11/21/2003,2.327618454,-0.1340399
11/24/2003,2.373511139,-0.147164734
11/25/2003,2.378705504,-0.15615699
11/26/2003,2.338394625,-0.14244107
11/27/2003,2.351636249,-0.157016992
11/28/2003,2.350456262,-0.144745123
12/1/2003,2.388682459,-0.161402694
12/2/2003,2.377600304,-0.162007986
12/3/2003,2.351896267,-0.150502174
12/4/2003,2.342232383,-0.151664884
12/5/2003,2.348275862,-0.155172414
12/8/2003,2.351851852,-0.159611993
12/9/2003,2.302243211,-0.141676505
12/10/2003,2.252787267,-0.117121514
12/11/2003,2.223469349,-0.107398926
12/12/2003,2.213462705,-0.100060643
12/15/2003,2.223300971,-0.104265045
12/16/2003,2.223300971,-0.104265045
12/17/2003,2.201884304,-0.098925947
12/18/2003,2.182513661,-0.081967213
12/19/2003,2.187718826,-0.083759763
12/22/2003,2.168354042,-0.086056144
12/23/2003,2.167615727,-0.074956421
12/24/2003,2.148169669,-0.069726903
12/25/2003,2.188902743,-0.080735661
12/26/2003,2.198240469,-0.081524927
12/29/2003,2.209633972,-0.087228648
12/30/2003,2.191709022,-0.078144854
12/31/2003,2.20717649,-0.080857282
1/1/2004,2.230483271,-0.091343601
1/2/2004,2.221335505,-0.094462541
1/5/2004,2.168129779,-0.081758971
1/6/2004,2.158870968,-0.088709677
1/7/2004,2.159290968,-0.096225733
1/8/2004,2.074129747,-0.068829114
1/9/2004,2.114794304,-0.079905063
1/12/2004,2.114794304,-0.079905063
1/13/2004,2.132653061,-0.087474685
1/14/2004,2.120165746,-0.077348066
1/15/2004,2.116796566,-0.072856659
1/16/2004,2.127271362,-0.065925815
1/19/2004,2.094915004,-0.051698071
1/20/2004,2.148781903,-0.065835267
1/21/2004,2.148185303,-0.06140948
1/22/2004,2.148449779,-0.061294471
1/23/2004,2.131473384,-0.045824148
1/26/2004,2.166937083,-0.058950784
1/27/2004,2.211538462,-0.076923077
1/28/2004,2.152466047,-0.057183703
1/29/2004,2.147071678,-0.058129371
1/30/2004,2.196850676,-0.074787474
2/2/2004,2.244095602,-0.0865507
2/3/2004,2.236226955,-0.083049937
2/4/2004,2.218516389,-0.086975273
2/5/2004,2.205172414,-0.077586207
2/6/2004,2.20545977,-0.081896552
2/9/2004,2.196284786,-0.080802373
2/10/2004,2.217861689,-0.081883751
2/11/2004,2.20909348,-0.081671616
2/12/2004,2.2,-0.07755102
2/13/2004,2.169491525,-0.059251996
2/16/2004,2.167594596,-0.04649101
2/17/2004,2.110344828,-0.030172414
2/18/2004,2.108636298,-0.025362839
2/19/2004,2.090281771,-0.016244968
2/20/2004,2.072463768,-0.007246377
2/23/2004,2.071735752,-0.006902533
2/24/2004,2.120909758,-0.032648569
2/25/2004,2.100478646,-0.034581277
2/26/2004,2.117516219,-0.034476367
2/27/2004,2.128286372,-0.03541926
3/1/2004,2.1191896,-0.026371347
3/2/2004,2.124699519,-0.021033654
3/3/2004,2.125415872,-0.021307615
3/4/2004,2.106455913,-0.011807275
3/5/2004,2.085535466,0.00741771
3/8/2004,2.088979781,0.005556413
3/9/2004,2.168621701,-0.021994135
3/10/2004,2.157216495,-0.020618557
3/11/2004,2.187718826,-0.028009696
3/12/2004,2.180473373,-0.028447883
3/15/2004,2.17684321,-0.031260542
3/16/2004,2.193185652,-0.035421118
3/17/2004,2.177817759,-0.036095806
3/18/2004,2.162449867,-0.036770494
3/19/2004,2.113760632,-0.020048603
3/22/2004,2.089169303,-0.011589341
3/23/2004,2.102814948,-0.010120319
3/24/2004,2.0998913,0.004385472
3/25/2004,2.11915739,-0.014280895
3/26/2004,2.112886209,-0.024114544
3/29/2004,2.176792291,-0.044607314
3/30/2004,2.236548606,-0.062547099
3/31/2004,2.242054623,-0.056971855
4/1/2004,2.22341618,-0.047620888
4/2/2004,2.220883222,-0.042061888
4/5/2004,2.219451372,-0.046134663
4/6/2004,2.223837661,-0.052480174
4/7/2004,2.201449332,-0.04481903
4/8/2004,2.177277101,-0.045862733
4/9/2004,2.163005131,-0.047145606
4/12/2004,2.163005131,-0.047145606
4/13/2004,2.141622262,-0.026642984
4/14/2004,2.148845471,-0.026050918
4/15/2004,2.132602588,-0.026512603
4/16/2004,2.129013056,-0.020278582
4/19/2004,2.114568259,-0.016883743
4/20/2004,2.09262518,-0.009358503
4/21/2004,2.107182851,-0.008238682
4/22/2004,2.078871201,0.002411963
4/23/2004,2.0451248,0.011803762
4/26/2004,2.044212618,0.016641828
4/27/2004,2.060944705,0.012047692
4/28/2004,2.078066914,0.002859594
4/29/2004,2.0125,0.025
4/30/2004,1.998790323,0.023387097
5/3/2004,1.966542751,0.031741493
5/4/2004,2.00188135,0.012667754
5/5/2004,1.988297693,0.011028793
5/6/2004,2.00419592,0.006896265
5/7/2004,1.943038233,0.022490288
5/10/2004,1.961153287,0.012437409
5/11/2004,1.967825223,0.013306852
5/12/2004,2.021879022,-0.002895753
5/13/2004,2.017696268,0.008687259
5/14/2004,1.974512385,0.01435922
5/17/2004,1.974512385,0.01435922
5/18/2004,2.021339396,-0.002632524
5/19/2004,2.048711962,0.000712279
5/20/2004,2.080060907,-0.007372976
5/21/2004,2.069488818,-0.015175719
5/24/2004,2.080750834,-0.007717352
5/25/2004,2.082529825,-0.01331917
5/26/2004,2.097592347,-0.035210418
5/27/2004,2.085414087,-0.036994127
5/28/2004,2.108613346,-0.045196403
5/31/2004,2.105142767,-0.034311406
6/1/2004,2.098122732,-0.035021297
6/2/2004,2.115088106,-0.039332914
6/3/2004,2.064161392,-0.021360759
6/4/2004,2.04818802,-0.017271974
6/7/2004,2.042746165,-0.000591506
6/8/2004,2.038318625,-0.007199257
6/9/2004,2.022439696,-0.003134676
6/10/2004,1.998644527,0.005308935
6/11/2004,2.006832858,0.00082595
6/14/2004,2.030683299,-0.0124744
6/15/2004,2.002841015,-0.010990243
6/16/2004,2.002841015,-0.010990243
6/17/2004,2.006694714,0.000914578
6/18/2004,1.992121926,0.004417612
6/21/2004,2.021130909,-0.002503313
6/22/2004,2.024897188,0.009447594
6/23/2004,2.021503776,0.02094572
6/24/2004,2.077246724,-0.005905149
6/25/2004,2.056394316,-0.003552398
6/28/2004,2.086019908,-0.015525182
6/29/2004,2.060797757,-0.001401568
6/30/2004,2.070381454,-0.011591348
7/1/2004,2.072050069,-0.012364525
7/2/2004,2.051176181,-0.014886928
7/5/2004,2.081556606,-0.022473205
7/6/2004,2.065930648,-0.013605971
7/7/2004,2.041568627,-0.004705882
7/8/2004,2.069672131,-0.011349306
7/9/2004,2.073770492,-0.02332913
7/12/2004,2.04745098,-0.022352941
7/13/2004,2.012225323,-0.016431464
7/14/2004,2.08863781,-0.040738383
7/15/2004,2.097032911,-0.045276757
7/16/2004,2.050491881,-0.02844613
7/19/2004,1.980680337,-0.00320019
7/20/2004,1.968511896,0.012983984
7/21/2004,1.982055961,0.01459854
7/22/2004,1.967973453,0.013042136
7/23/2004,1.956951252,0.028154565
7/26/2004,1.966716061,0.018237775
7/27/2004,1.976480869,0.008320985
7/28/2004,1.969492913,0.007515161
7/29/2004,1.9615727,0.011869436
7/30/2004,1.970402169,0.002485314
8/2/2004,1.954326923,0.006610577
8/3/2004,1.985309549,-0.001049318
8/4/2004,1.986086176,-0.005834829
8/5/2004,2.017192838,-0.009009347
8/6/2004,2.008527828,-0.00448833
8/9/2004,2.001140684,-0.004942966
8/10/2004,1.969015796,-0.001215067
8/11/2004,1.98365019,0.00418251
8/12/2004,1.994265152,-0.010007871
8/13/2004,1.994265152,-0.010007871
8/16/2004,1.984632108,-0.000674688
8/17/2004,2.000974549,-0.004835264
8/18/2004,2.001051091,-0.004917602
8/19/2004,1.989874443,0.013918038
8/20/2004,1.997335307,0.014433753
8/23/2004,2.006735751,0.005181347
8/24/2004,2.006735751,0.005181347
8/25/2004,2.014524383,0.005418423
8/26/2004,1.98060442,0.01849346
8/27/2004,1.988982502,0.014257939
8/30/2004,1.972647915,0.013967022
8/31/2004,1.972412718,0.014027431
9/1/2004,1.998928189,0.004823151
9/2/2004,2.040143342,-0.003507301
9/3/2004,2.024728219,-0.00413413
9/6/2004,2.015920777,0.00038088
9/7/2004,2.050339716,-0.008647313
9/8/2004,2.052376334,-0.018234724
9/9/2004,2.068062206,-0.017886115
9/10/2004,2.083653199,-0.01733212
9/13/2004,2.029185375,0.010583708
9/14/2004,1.986106077,0.019693126
9/15/2004,1.961821916,0.019330675
9/16/2004,1.96866485,0.024202597
9/17/2004,1.969496855,0.023584906
9/20/2004,1.943408659,0.032598163
9/21/2004,1.969935741,0.027998776
9/22/2004,1.968114391,0.037085181
9/23/2004,2.00267625,0.028062395
9/24/2004,2.010857929,0.028138859
9/27/2004,1.968368163,0.037113167
9/28/2004,1.98872761,0.0142063
9/29/2004,1.996004764,0.018900542
9/30/2004,2.013748608,0.014017435
10/1/2004,1.997222222,0.013888889
10/4/2004,2.023372999,0.00910888
10/5/2004,2.005884909,0.009597535
10/6/2004,2.005884909,0.009597535
10/7/2004,2.032777689,0.004407758
10/8/2004,2.078410052,-0.005799203
10/11/2004,2.096051141,-0.010438582
10/12/2004,2.095132654,-0.010024558
10/13/2004,2.039494344,0.00938041
10/14/2004,2.114642916,-0.015525413
10/15/2004,2.114642916,-0.015525413
10/18/2004,2.15647482,-0.035971223
10/19/2004,2.174738726,-0.045138465
10/20/2004,2.20836705,-0.049603496
10/21/2004,2.215779741,-0.056708445
10/22/2004,2.283088235,-0.084558824
10/25/2004,2.266607241,-0.076276582
10/26/2004,2.253187457,-0.062026189
10/27/2004,2.220189819,-0.061691113
10/28/2004,2.244966301,-0.074477555
10/29/2004,2.34932805,-0.10854583
11/1/2004,2.341504129,-0.089351608
11/2/2004,2.269859813,-0.070093458
11/3/2004,2.278389286,-0.091084205
11/4/2004,2.24055189,-0.080430068
11/5/2004,2.221656977,-0.058866279
11/8/2004,2.203918077,-0.057880677
11/9/2004,2.202048085,-0.052983081
11/10/2004,2.205995215,-0.047447068
11/11/2004,2.169079912,-0.029875367
11/12/2004,2.139967374,-0.019575856
11/15/2004,2.132871064,-0.024362819
11/16/2004,2.130179445,-0.035189932
11/17/2004,2.168087187,-0.045968981
11/18/2004,2.254827175,-0.071752086
11/19/2004,2.282325426,-0.084530571
11/22/2004,2.341922789,-0.11488006
11/23/2004,2.336558728,-0.104905154
11/24/2004,2.363170981,-0.113500073
11/25/2004,2.382049245,-0.122319301
11/26/2004,2.322217347,-0.101506509
11/29/2004,2.299642218,-0.093321407
11/30/2004,2.327747486,-0.106597969
12/1/2004,2.322850318,-0.111863057
12/2/2004,2.353901274,-0.134952229
12/3/2004,2.389352973,-0.140576343
12/6/2004,2.447388857,-0.161327897
12/7/2004,2.420597942,-0.160454281
12/8/2004,2.441467676,-0.166569598
12/9/2004,2.423906073,-0.15583839
12/10/2004,2.451515006,-0.162580086
12/13/2004,2.434848485,-0.159090909
12/14/2004,2.474242424,-0.170454545
12/15/2004,2.484396201,-0.172804807
12/16/2004,2.491443616,-0.172882843
12/17/2004,2.521632816,-0.190777983
12/20/2004,2.513398872,-0.190827886
12/21/2004,2.494779116,-0.180722892
12/22/2004,2.548462994,-0.205002302
12/23/2004,2.520143332,-0.205784489
12/24/2004,2.464170631,-0.179837348
12/27/2004,2.476744186,-0.174418605
12/28/2004,2.502366742,-0.17472731
12/29/2004,2.448241935,-0.163740873
12/30/2004,2.452177515,-0.169799596
12/31/2004,2.484719639,-0.176189211
1/3/2005,2.527988641,-0.195783955
1/4/2005,2.4988879,-0.196174377
1/5/2005,2.493619193,-0.186149396
1/6/2005,2.526112186,-0.196463111
1/7/2005,2.520162199,-0.204212661
1/10/2005,2.45577332,-0.178630956
1/11/2005,2.472176567,-0.196055412
1/12/2005,2.485855899,-0.200435203
1/13/2005,2.485855899,-0.200435203
1/14/2005,2.517287234,-0.199468085
1/17/2005,2.51690527,-0.20012184
1/18/2005,2.51690527,-0.20012184
1/19/2005,2.525593313,-0.197730462
1/20/2005,2.525593313,-0.197730462
1/21/2005,2.553795136,-0.207074429
1/24/2005,2.549010052,-0.190983856
1/25/2005,2.549010052,-0.190983856
1/26/2005,2.482851051,-0.169966494
1/27/2005,2.451383695,-0.141735228
1/28/2005,2.500242483,-0.163918526
1/31/2005,2.560580681,-0.213288666
2/1/2005,2.559912854,-0.227305737
2/2/2005,2.581906793,-0.229058788
2/3/2005,2.581906793,-0.229058788
2/4/2005,2.568210041,-0.224410147
2/7/2005,2.545537618,-0.214742613
2/8/2005,2.535452323,-0.207823961
2/9/2005,2.56623506,-0.220119522
2/10/2005,2.553230431,-0.220547862
2/11/2005,2.471856287,-0.194011976
2/14/2005,2.500929368,-0.203066914
2/15/2005,2.551528879,-0.222536806
2/16/2005,2.54129445,-0.222984266
2/17/2005,2.478358596,-0.203446487
2/18/2005,2.508822181,-0.207149404
2/21/2005,2.520508708,-0.221814849
2/22/2005,2.476687223,-0.211169385
2/23/2005,2.427889207,-0.191977077
2/24/2005,2.407002676,-0.184656557
2/25/2005,2.435778036,-0.19607517
2/28/2005,2.42307906,-0.204233569
3/1/2005,2.480060767,-0.222939613
3/2/2005,2.489203196,-0.2199309
3/3/2005,2.499784064,-0.234398618
3/4/2005,2.494217082,-0.242437722
3/7/2005,2.551945181,-0.268567639
3/8/2005,2.511458979,-0.254913002
3/9/2005,2.534433245,-0.284419168
3/10/2005,2.537726839,-0.283667622
3/11/2005,2.492178771,-0.269832402
3/14/2005,2.535793934,-0.281445138
3/15/2005,2.567039106,-0.287150838
3/16/2005,2.581322829,-0.301985885
3/17/2005,2.572041166,-0.295883362
3/18/2005,2.581267658,-0.293299216
3/21/2005,2.573857882,-0.293778986
3/22/2005,2.596087211,-0.292339677
3/23/2005,2.592082981,-0.297629128
3/24/2005,2.612195122,-0.310710498
3/25/2005,2.619512195,-0.310180276
3/28/2005,2.590243902,-0.312301166
3/29/2005,2.603619814,-0.32514818
3/30/2005,2.657015832,-0.345478204
3/31/2005,2.645797227,-0.345320624
4/1/2005,2.643590985,-0.34274649
4/4/2005,2.588694482,-0.317631225
4/5/2005,2.502430776,-0.287571338
4/6/2005,2.489336993,-0.286951014
4/7/2005,2.522511097,-0.293595434
4/8/2005,2.512319728,-0.289606727
4/11/2005,2.472300569,-0.277579692
4/12/2005,2.479631218,-0.286878216
4/13/2005,2.45731411,-0.27652681
4/14/2005,2.426939134,-0.25313118
4/15/2005,2.374025974,-0.242055817
4/18/2005,2.378470163,-0.250714247
4/19/2005,2.38150289,-0.234104046
4/20/2005,2.396917148,-0.233461785
4/21/2005,2.320234114,-0.204431438
4/22/2005,2.339634801,-0.225026853
4/25/2005,2.350574713,-0.232758621
4/26/2005,2.339522546,-0.218169761
4/27/2005,2.337074282,-0.211567309
4/28/2005,2.41219459,-0.238874346
4/29/2005,2.40359086,-0.223612622
5/2/2005,2.410881393,-0.223068553
5/3/2005,2.394050856,-0.204701743
5/4/2005,2.373070326,-0.19296741
5/5/2005,2.283769634,-0.165445026
5/6/2005,2.27434555,-0.151832461
5/9/2005,2.212761428,-0.122452238
5/10/2005,2.213379835,-0.135066582
5/11/2005,2.189189189,-0.121621622
5/12/2005,2.20605613,-0.12070057
5/13/2005,2.256060606,-0.136363636
5/16/2005,2.265367965,-0.149350649
5/17/2005,2.282034632,-0.149350649
5/18/2005,2.317276467,-0.155769647
5/19/2005,2.261440035,-0.129798308
5/20/2005,2.242850953,-0.123483536
5/23/2005,2.181411778,-0.099453612
5/24/2005,2.229313404,-0.122479703
5/25/2005,2.193007144,-0.116367179
5/26/2005,2.190007972,-0.113473293
5/27/2005,2.160078193,-0.101650738
5/30/2005,2.148044693,-0.091061453
5/31/2005,2.17150838,-0.098324022
6/1/2005,2.161120062,-0.096949831
6/2/2005,2.154730327,-0.101458886
6/3/2005,2.193633952,-0.104111406
6/6/2005,2.14468995,-0.089094797
6/7/2005,2.0846527,-0.072924996
6/8/2005,2.100128645,-0.068610635
6/9/2005,2.091981132,-0.056603774
6/10/2005,2.134264232,-0.064446831
6/13/2005,2.118809765,-0.068753673
6/14/2005,2.098621421,-0.067338282
6/15/2005,2.116989293,-0.067883327
6/16/2005,2.090986214,-0.055673383
6/17/2005,2.053234358,-0.053552492
6/20/2005,2.039633665,-0.047213011
6/21/2005,2.151630884,-0.085466557
6/22/2005,2.168750973,-0.09817861
6/23/2005,2.163073346,-0.099873177
6/24/2005,2.186282811,-0.106265876
6/27/2005,2.229162248,-0.113997879
6/28/2005,2.221527041,-0.10233298
6/29/2005,2.202651113,-0.101272534
6/30/2005,2.248038176,-0.115058324
7/1/2005,2.219724284,-0.113467656
7/4/2005,2.238600212,-0.114528102
7/5/2005,2.257583027,-0.11610427
7/6/2005,2.247153598,-0.110633727
7/7/2005,2.270856655,-0.122501199
7/8/2005,2.278366914,-0.133616119
7/11/2005,2.278366914,-0.133616119
7/12/2005,2.316363251,-0.140982218
7/13/2005,2.35588251,-0.155445386
7/14/2005,2.363772056,-0.167279706
7/15/2005,2.294284468,-0.132198953
7/18/2005,2.29568507,-0.121443062
7/19/2005,2.270949721,-0.110055866
7/20/2005,2.295304618,-0.122235157
7/21/2005,2.354670002,-0.152066398
7/22/2005,2.341348118,-0.154946017
7/25/2005,2.359206303,-0.155529618
7/26/2005,2.368135395,-0.155821418
7/27/2005,2.316513761,-0.142201835
7/28/2005,2.319350145,-0.146459748
7/29/2005,2.43364973,-0.1889075
8/1/2005,2.462034928,-0.192862566
8/2/2005,2.396843951,-0.167153711
8/3/2005,2.341041931,-0.127700127
8/4/2005,2.372324159,-0.137614679
8/5/2005,2.341071314,-0.130152402
8/8/2005,2.34724455,-0.137032988
8/9/2005,2.34724455,-0.137032988
8/10/2005,2.346478502,-0.140068583
8/11/2005,2.348054679,-0.145899054
8/12/2005,2.309203105,-0.130847323
8/15/2005,2.336418144,-0.138164755
8/16/2005,2.270478508,-0.110300081
8/17/2005,2.173721282,-0.073332894
8/18/2005,2.110717797,-0.048180924
8/19/2005,2.110717797,-0.048180924
8/22/2005,2.110717797,-0.048180924
8/23/2005,2.152261207,-0.071094727
8/24/2005,2.110717797,-0.048180924
8/25/2005,2.162562863,-0.065247208
8/26/2005,2.269152897,-0.099993469
8/29/2005,2.275553524,-0.106981908
8/30/2005,2.200462012,-0.074435318
8/31/2005,2.133470226,-0.031314168
9/1/2005,2.178131417,-0.060061602
9/2/2005,2.124229979,-0.042607803
9/5/2005,2.149030823,-0.050524309
9/6/2005,2.133341759,-0.0429727
9/7/2005,2.11627907,-0.023255814
9/8/2005,2.103071846,-0.028560548
9/9/2005,2.070964076,-0.013574089
9/12/2005,2.136092124,-0.043414003
9/13/2005,2.079325197,-0.013639627
9/14/2005,2.079325197,-0.013639627
9/15/2005,2.114502025,-0.033746112
9/16/2005,2.103326256,-0.032554848
9/19/2005,2.11826269,-0.023722309
9/20/2005,2.189926173,-0.048821148
9/21/2005,2.185553153,-0.042837941
9/22/2005,2.135351161,-0.027328828
9/23/2005,2.198324022,-0.044692737
9/26/2005,2.178078166,-0.042903321
9/27/2005,2.148743017,-0.033519553
9/28/2005,2.176760359,-0.042306578
9/29/2005,2.221134138,-0.077203371
9/30/2005,2.232748804,-0.078683671
10/3/2005,2.274652699,-0.093828285
10/4/2005,2.270488628,-0.100603176
10/5/2005,2.286372257,-0.110810079
10/6/2005,2.286372257,-0.110810079
10/7/2005,2.209763018,-0.080500236
10/10/2005,2.231727182,-0.082917345
10/11/2005,2.251550868,-0.102977667
10/12/2005,2.258466842,-0.120360982
10/13/2005,2.258466842,-0.120360982
10/14/2005,2.216697148,-0.114082349
10/17/2005,2.212174941,-0.104018913
10/18/2005,2.2127596,-0.105483341
10/19/2005,2.212648221,-0.109683794
10/20/2005,2.300237963,-0.148397549
10/21/2005,2.292335841,-0.152978248
10/24/2005,2.289794674,-0.14799756
10/25/2005,2.328947368,-0.151821862
10/26/2005,2.342746153,-0.165247273
10/27/2005,2.356,-0.172
10/28/2005,2.349917825,-0.180038847
10/31/2005,2.368651489,-0.179217747
11/1/2005,2.392557252,-0.196564885
11/2/2005,2.392557252,-0.196564885
11/3/2005,2.438864735,-0.204044746
11/4/2005,2.43476137,-0.194567925
11/7/2005,2.400981524,-0.170900693
11/8/2005,2.323653874,-0.137312126
11/9/2005,2.347354138,-0.143826323
11/10/2005,2.332622601,-0.13326226
11/11/2005,2.358598635,-0.152212305
11/14/2005,2.361706117,-0.167565034
11/15/2005,2.268338411,-0.140379658
11/16/2005,2.288600625,-0.146890019
11/17/2005,2.329150983,-0.155165203
11/18/2005,2.311168735,-0.161604001
11/21/2005,2.361979167,-0.1796875
11/22/2005,2.43266369,-0.204241071
11/23/2005,2.360804762,-0.187439435
11/24/2005,2.382459971,-0.204148472
11/25/2005,2.424895814,-0.221326327
11/28/2005,2.476040605,-0.236003369
11/29/2005,2.530667364,-0.254573968
11/30/2005,2.528227914,-0.245687402
12/1/2005,2.528227914,-0.245687402
12/2/2005,2.548266248,-0.247255619
12/5/2005,2.590782366,-0.25927862
12/6/2005,2.541972508,-0.237688509
12/7/2005,2.539504176,-0.24235932
12/8/2005,2.535656508,-0.225394605
12/9/2005,2.535656508,-0.225394605
12/12/2005,2.507763975,-0.208074534
12/13/2005,2.501374807,-0.206736553
12/14/2005,2.549084859,-0.21797005
12/15/2005,2.527667563,-0.211954435
12/16/2005,2.54823158,-0.21374632
12/19/2005,2.525030423,-0.209139356
12/20/2005,2.504016064,-0.198795181
12/21/2005,2.495307612,-0.205422315
12/22/2005,2.457584517,-0.194420008
12/23/2005,2.434548815,-0.184758864
12/26/2005,2.434927323,-0.193174637
12/27/2005,2.417161772,-0.184433882
12/28/2005,2.401432484,-0.178007162
12/29/2005,2.379901961,-0.176470588
12/30/2005,2.402017719,-0.187232419
1/2/2006,2.402017719,-0.187232419
1/3/2006,2.385542169,-0.167670683
1/4/2006,2.399448809,-0.174653449
1/5/2006,2.304875598,-0.147835524
1/6/2006,2.342332268,-0.154153355
1/9/2006,2.312140575,-0.151757188
1/10/2006,2.309482623,-0.16464853
1/11/2006,2.319587629,-0.168633139
1/12/2006,2.350515464,-0.171337854
1/13/2006,2.309278351,-0.160127004